Wind_Speed
36 36 37 37 38 40 41 42 43 43 44 44 43 42 41 40 39 38 36 35 34 33 31 30 30 30 29 29 28 27 26 25 25 24 24 29 32 33 35 39 41 43 45 46 47 47 47 46 45 44 43 43 42 41 40 39 37 36 35 34 32 31 31 28 28 29 27 29 31 29 29 28 27 26 27 28 28 30 31 31 31 32 32 32 34 34 33 33
36 37 38 38 38 39 40 41 42 43 44 44 44 43 42 41 41 39 38 37 36 35 34 33 32 32 32 32 31 30 29 28 28 26 25 28 30 31 32 35 37 40 43 45 47 48 48 48 47 46 45 44 44 43 42 42 40 40 38 37 36 34 34 31 31 32 30 31 32 30 31 30 29 29 29 30 30 31 31 32 33 33 33 34 34 33 33 33
38 38 39 39 40 40 40 41 41 43 44 44 45 44 44 43 42 41 40 39 38 37 36 35 34 33 34 34 34 33 32 31 31 29 28 29 29 29 30 32 34 36 38 42 45 47 48 48 48 48 47 46 45 45 44 44 43 42 42 40 40 40 40 40 39 37 35 35 36 35 34 32 34 32 31 32 32 31 32 34 34 32 33 34 34 33 33 33
39 40 41 41 42 42 42 42 42 42 44 44 45 45 45 44 44 43 42 41 40 39 39 38 37 36 35 36 36 36 35 34 34 33 32 31 30 29 29 31 32 34 35 37 41 45 46 47 48 49 48 48 47 46 45 45 44 44 44 43 44 44 45 45 43 42 40 39 40 40 36 35 38 35 32 32 33 32 33 36 34 28 28 32 34 34 34 33
41 42 42 43 44 44 44 44 44 44 45 45 45 46 46 46 46 46 45 44 42 42 41 40 39 39 38 38 38 39 38 37 37 37 35 34 33 31 30 31 32 33 33 34 36 40 43 44 46 48 48 48 47 47 47 47 46 46 45 46 47 47 47 47 46 45 44 43 42 42 38 38 40 38 34 31 33 34 34 32 27 23 27 33 36 35 34 34
43 44 44 45 45 45 46 46 47 47 47 47 47 47 47 47 47 47 47 46 45 44 44 43 42 41 41 40 40 40 41 41 40 39 39 37 35 33 32 33 33 33 33 33 33 36 39 40 42 44 46 47 47 47 48 48 47 47 47 46 47 47 48 48 48 47 47 46 45 43 41 42 41 38 34 31 33 35 31 26 25 28 33 37 38 36 34 33
44 45 46 46 47 47 47 47 48 48 49 49 50 49 49 49 49 49 49 48 48 47 46 45 44 44 44 42 42 42 43 44 43 42 41 40 38 36 35 35 35 34 34 33 32 33 34 36 37 39 42 44 44 45 46 47 47 48 48 48 48 48 48 48 48 47 48 47 47 45 44 44 42 39 35 31 32 31 26 29 34 36 36 38 38 34 32 31
45 46 47 47 48 48 48 49 49 49 50 50 51 51 51 51 51 51 51 50 50 49 49 48 47 47 46 45 44 43 45 46 45 44 44 43 41 40 38 37 37 36 35 34 34 33 32 33 34 35 38 39 40 42 44 45 46 47 48 49 50 49 48 47 46 45 46 46 46 47 46 45 41 38 35 31 30 29 29 34 37 34 36 38 36 32 30 28
47 47 48 48 48 49 49 50 50 51 51 51 51 52 52 52 52 52 53 52 52 51 51 51 50 49 48 48 47 46 47 47 47 47 47 46 44 43 42 40 40 39 37 36 35 34 33 32 31 32 32 33 36 38 40 42 43 46 48 50 50 49 48 47 46 44 43 42 43 44 44 42 39 36 34 31 29 32 33 33 31 32 35 36 34 31 28 25
51 50 50 50 50 50 50 51 51 52 52 52 53 53 53 53 53 53 54 54 53 53 53 53 52 51 51 50 49 49 49 48 48 49 49 49 47 46 44 43 42 41 40 39 38 37 35 32 31 31 31 32 33 35 38 40 41 42 45 47 48 48 48 47 47 44 42 40 40 40 39 36 35 34 32 31 31 32 31 29 31 33 33 33 32 30 26 24
55 54 54 54 53 53 53 53 52 53 53 53 54 55 55 55 55 55 55 55 55 55 55 54 54 53 53 52 52 52 52 51 50 50 51 51 50 49 47 46 45 44 42 41 40 38 36 35 34 34 33 32 33 34 36 37 37 38 41 44 46 46 46 47 47 45 43 41 40 38 36 32 31 32 30 29 29 29 28 29 30 30 30 30 29 27 24 23
60 59 59 58 57 57 56 56 55 55 55 55 55 55 56 57 57 57 57 57 57 56 56 56 56 55 55 54 54 54 54 53 53 52 52 53 53 52 51 49 47 46 45 44 43 40 39 38 37 36 35 34 33 32 32 34 35 35 38 40 42 44 44 45 45 44 43 42 42 38 34 31 30 31 30 28 27 25 25 29 27 26 28 28 26 24 21 20
64 63 63 63 62 62 61 60 59 58 58 58 57 57 57 58 58 58 58 59 59 58 58 58 58 57 56 56 56 56 55 55 55 54 54 54 54 54 53 52 51 49 48 46 45 43 42 40 40 38 37 36 33 31 33 34 32 33 35 36 38 40 41 42 43 43 42 42 42 38 34 32 31 32 30 27 26 23 25 27 25 24 26 25 23 21 19 19
65 66 66 66 66 66 65 65 64 63 62 62 61 60 60 60 59 59 60 60 60 60 60 60 60 59 58 58 58 58 57 57 57 56 56 56 56 56 55 54 54 53 51 49 47 46 44 43 42 40 39 39 35 35 37 33 31 32 32 32 34 37 37 38 40 40 40 40 40 36 33 32 32 31 28 27 25 24 26 24 20 21 23 23 20 19 18 19
65 66 66 67 68 68 68 68 68 67 66 66 65 65 64 64 63 62 62 62 62 62 62 62 62 61 61 61 60 60 60 59 59 59 58 58 58 58 57 57 56 55 54 52 50 49 47 46 44 42 42 41 38 40 38 33 32 32 32 32 32 33 33 34 35 35 36 36 35 33 32 32 31 29 28 27 25 25 25 19 17 20 22 22 19 17 17 18
65 66 66 67 68 69 69 69 70 70 70 69 69 69 69 68 67 66 66 65 65 64 64 63 63 63 63 63 63 62 62 61 61 61 60 60 60 60 60 59 58 57 57 55 54 52 50 48 46 45 44 43 42 42 39 35 35 34 34 33 31 31 31 31 31 31 32 32 31 30 32 31 29 28 27 26 25 25 24 19 19 21 20 20 18 16 18 17
67 68 68 68 68 69 69 70 70 71 71 71 71 72 72 72 72 71 70 70 69 68 67 66 66 65 65 65 65 65 65 64 64 64 63 63 62 63 62 61 60 59 59 58 57 55 53 51 49 48 47 45 44 43 41 39 39 38 37 35 33 32 31 29 29 28 28 27 26 27 29 29 29 28 27 25 25 26 24 21 19 18 19 20 19 18 18 17
68 69 69 69 70 70 70 70 71 71 71 71 72 73 73 74 74 74 74 74 73 72 71 70 69 69 67 67 66 67 67 67 67 67 66 65 65 65 64 63 63 61 60 60 59 58 57 55 52 50 49 47 46 45 44 44 44 41 39 38 35 33 30 29 28 26 25 23 23 25 26 27 28 26 25 25 25 24 20 17 17 19 21 22 21 18 17 15
70 71 71 71 71 72 72 72 72 72 72 72 72 73 73 74 75 76 76 77 77 76 75 75 74 72 71 70 70 69 69 69 69 69 68 68 68 67 67 66 65 64 62 62 61 60 59 58 55 51 50 51 51 51 49 49 46 42 41 41 36 32 30 29 27 24 22 21 21 23 23 24 25 24 25 26 27 24 17 16 21 22 22 22 20 18 16 14
72 72 73 73 72 73 74 74 74 74 74 73 73 73 73 74 75 76 77 77 78 79 78 78 78 76 75 74 74 73 72 71 71 70 70 70 70 70 70 69 68 66 65 64 63 62 62 61 57 54 55 57 57 54 52 51 47 45 44 43 38 34 31 29 26 23 22 20 21 22 22 23 25 27 28 28 28 25 20 22 27 23 22 23 20 17 15 14
74 74 75 75 74 74 75 75 75 76 76 76 75 75 74 74 75 76 77 78 78 79 79 80 80 79 79 78 78 77 76 75 74 73 72 71 71 71 71 71 70 69 68 67 66 65 64 61 59 60 61 61 59 56 55 52 49 48 47 45 42 37 33 30 28 25 23 22 22 23 23 24 26 28 29 29 28 26 25 27 27 23 24 25 21 18 16 15
77 76 76 76 76 76 77 77 76 76 77 77 77 77 77 77 76 76 77 78 78 79 79 80 81 80 81 81 81 81 80 80 78 77 75 74 73 72 72 73 72 71 71 69 68 67 65 62 63 65 66 64 61 59 57 54 52 51 50 48 45 40 35 32 30 28 26 24 24 25 25 26 27 28 28 29 29 27 27 31 30 27 27 26 22 19 16 15
78 77 77 77 77 78 78 78 78 78 78 77 78 78 79 79 79 79 79 79 79 79 80 80 81 81 81 82 82 83 83 83 82 81 80 78 77 75 74 74 73 73 72 71 70 69 67 66 67 69 69 67 64 62 60 58 55 54 53 51 48 45 39 35 34 33 30 29 28 27 26 26 25 26 28 29 29 25 28 35 36 33 31 29 25 21 18 17
79 78 78 78 78 78 79 79 80 80 79 79 79 79 79 80 81 81 81 81 81 81 81 81 81 81 81 82 83 83 84 84 84 83 83 82 81 79 78 77 75 75 74 73 72 71 70 71 71 71 71 69 67 64 63 61 58 58 57 54 51 48 44 40 39 35 33 31 29 27 26 25 24 25 28 31 31 30 33 35 33 32 32 31 27 22 20 18
78 78 78 78 78 78 79 80 80 80 80 80 81 80 80 80 81 81 82 83 83 84 83 83 82 82 82 83 83 84 84 84 84 84 84 85 84 83 83 81 79 78 77 75 74 72 72 73 73 72 72 71 69 67 65 64 62 61 59 57 55 52 48 44 40 38 36 34 32 30 28 26 26 26 27 29 32 36 37 34 33 34 33 30 25 21 20 18
73 74 75 77 77 78 79 79 80 80 80 81 81 81 82 82 82 82 82 84 84 84 86 86 85 85 84 84 84 84 84 84 84 85 85 86 86 86 86 85 84 82 80 78 76 74 73 75 74 74 73 73 72 70 69 68 66 63 62 61 59 55 52 46 41 41 40 38 36 33 30 29 28 27 26 26 31 38 39 38 39 37 32 28 25 23 22 20
66 68 70 72 74 75 77 78 79 80 80 81 82 82 83 83 83 82 82 84 83 83 86 87 87 88 87 86 86 85 84 84 84 84 85 86 86 87 88 87 87 87 84 81 79 77 76 76 75 74 75 75 74 73 72 72 70 66 65 65 62 59 55 49 45 45 43 41 39 35 33 31 28 27 26 25 29 36 39 39 39 36 31 27 25 24 23 20
58 61 63 66 67 69 72 74 77 78 80 81 81 82 83 83 84 83 84 85 82 82 86 86 87 88 88 89 89 88 86 86 85 85 85 86 86 87 88 88 89 89 87 85 83 82 80 79 78 77 77 76 75 75 76 76 72 69 69 68 65 62 58 54 50 47 47 44 40 37 35 32 30 30 28 26 30 35 37 37 35 34 31 29 28 25 22 21
48 51 54 57 60 62 64 67 70 74 77 79 80 81 82 83 84 84 85 85 82 83 85 85 86 87 88 90 91 90 89 89 88 87 87 86 86 88 88 88 89 90 89 87 88 87 85 84 82 79 78 77 77 78 80 78 74 73 74 71 68 65 62 60 55 51 50 46 41 40 37 34 34 34 31 29 32 36 36 35 34 33 32 31 30 26 23 23
40 42 44 47 50 53 56 59 62 66 69 73 75 78 80 82 83 84 86 85 84 85 85 84 85 87 87 89 90 90 91 91 91 91 91 89 89 89 88 88 89 90 89 89 89 90 89 88 86 82 79 78 79 80 81 78 75 75 76 73 71 69 67 65 59 55 52 47 44 44 40 38 38 36 33 32 34 36 36 34 33 32 33 33 31 28 27 27
38 37 37 39 41 44 47 51 55 58 62 65 67 71 74 77 80 83 84 85 85 86 86 86 87 87 87 88 88 89 91 92 93 94 94 93 92 91 91 90 90 89 90 90 91 92 92 91 88 87 84 83 82 82 81 78 76 76 77 75 74 73 72 68 63 58 52 48 48 47 44 43 41 38 36 36 37 38 35 33 32 32 32 33 33 31 30 28
39 38 36 36 36 37 40 43 47 51 55 57 60 63 66 69 74 77 80 83 85 85 87 88 88 88 88 88 87 88 90 91 92 94 95 96 96 95 95 93 91 91 91 92 92 93 93 90 90 91 90 88 86 85 83 80 78 78 79 78 75 76 75 72 66 60 53 51 52 51 48 46 44 43 41 40 39 38 36 34 33 32 31 32 32 30 28 26
40 39 38 37 36 36 36 38 40 44 48 50 53 56 59 62 66 70 74 78 80 82 86 88 88 89 89 88 87 88 89 89 90 93 94 96 97 98 98 97 94 94 95 94 93 92 91 91 92 93 93 91 90 88 86 83 80 80 81 80 77 78 78 74 69 64 58 56 57 56 54 50 48 48 46 43 42 40 39 37 35 33 33 32 32 30 28 26
41 41 40 39 39 38 37 37 38 40 43 45 47 50 53 57 60 64 68 71 74 77 81 84 87 88 89 89 88 89 89 89 90 91 93 95 97 98 99 98 98 98 98 97 94 93 93 94 95 95 95 94 93 92 90 86 84 84 84 83 80 80 80 77 73 69 64 62 61 61 57 53 51 52 50 47 46 44 42 40 38 37 35 34 34 31 29 29
42 42 41 41 41 40 39 38 38 40 42 43 45 46 48 52 55 58 62 64 68 71 74 78 82 84 87 88 89 90 90 90 91 92 92 94 96 97 96 97 99 101 102 100 98 96 95 96 97 96 94 94 93 93 93 91 90 88 87 85 82 80 80 80 76 73 70 67 66 64 60 57 56 56 54 51 49 47 45 43 42 40 38 37 37 35 33 31
42 42 42 42 42 41 41 40 40 41 43 44 45 46 47 49 51 53 56 58 61 65 68 72 75 78 81 83 86 88 90 90 92 93 94 93 94 94 94 96 100 101 103 103 102 100 98 99 100 96 93 92 92 92 95 97 95 92 89 87 83 80 80 81 79 76 74 71 68 66 64 62 60 59 57 54 53 52 49 49 47 43 40 40 39 38 35 34
42 42 42 43 43 43 43 43 42 43 44 45 46 47 47 49 50 51 53 54 56 60 63 65 68 71 74 77 80 82 86 89 91 93 93 93 93 92 92 94 98 100 102 103 104 103 101 103 102 96 92 93 93 95 98 100 98 95 92 90 86 82 83 83 81 80 77 74 71 69 67 65 62 61 60 58 57 57 55 54 51 46 44 43 41 39 38 38
40 40 41 41 42 43 44 44 44 44 44 46 47 48 48 50 50 51 53 54 55 57 59 61 63 66 68 70 72 75 80 85 85 88 91 92 92 92 91 93 95 98 101 103 105 105 103 105 104 98 95 96 97 98 99 100 100 98 96 95 90 86 85 86 83 81 78 76 76 74 70 67 65 62 63 63 62 61 59 57 53 49 47 45 42 42 41 40
36 37 38 38 40 42 43 43 43 44 45 46 47 48 49 50 51 52 53 55 56 57 59 60 61 64 65 66 67 70 74 78 79 82 87 89 89 90 90 92 94 96 99 102 105 105 105 107 106 102 100 100 100 101 99 98 100 100 100 98 94 89 88 88 85 81 80 79 79 77 72 69 68 66 66 67 65 64 63 61 56 52 49 47 45 44 43 41
32 34 35 35 37 38 39 40 41 42 43 44 46 47 48 50 51 52 53 55 56 57 59 61 61 63 64 65 67 68 69 73 75 78 81 84 85 86 88 91 92 94 96 100 103 104 106 108 107 105 105 104 103 103 100 97 99 102 102 100 98 94 91 89 86 82 81 81 81 79 73 70 70 70 69 70 69 67 66 64 61 57 54 51 48 46 45 43
29 31 32 33 34 35 35 36 37 38 40 41 43 44 45 47 48 50 51 53 55 56 57 59 61 62 63 65 67 67 67 71 75 76 77 79 81 83 84 87 88 91 95 99 102 105 106 107 106 107 107 106 105 104 102 98 99 102 103 102 100 97 93 90 87 83 81 81 82 82 77 73 75 74 71 72 73 71 70 68 65 61 57 54 51 48 47 45
27 28 31 32 32 32 32 33 34 36 37 38 40 41 42 44 45 47 49 50 51 53 54 56 58 60 62 63 65 66 67 70 73 75 76 77 79 80 79 81 85 89 93 98 102 104 104 104 106 107 109 108 107 107 105 102 101 104 106 105 103 102 99 95 91 85 82 82 83 84 82 80 79 75 71 73 76 74 72 71 67 63 59 56 54 52 50 48
25 26 28 29 30 30 30 31 32 33 35 36 37 38 39 41 42 44 46 47 48 50 52 53 55 57 59 60 62 65 66 68 70 73 75 76 78 78 76 79 84 88 92 96 100 102 101 102 105 108 110 111 110 109 107 105 105 105 105 106 105 104 102 99 95 91 88 86 86 86 85 83 81 76 73 75 78 77 75 73 69 65 62 59 57 55 53 51
23 24 25 27 27 28 28 30 30 31 33 34 35 36 37 39 40 42 44 45 46 48 50 51 52 55 56 57 60 62 63 65 67 71 73 75 77 76 76 79 83 86 90 93 95 96 97 100 104 107 110 111 110 109 108 107 108 106 103 104 104 103 102 101 98 96 93 90 88 88 86 84 82 77 75 75 77 79 79 75 71 68 65 63 61 58 56 54
22 21 22 24 25 25 26 27 28 29 31 32 33 34 35 37 38 40 42 43 45 46 48 49 51 53 54 55 57 59 61 62 64 67 71 73 75 74 75 77 81 85 88 88 90 93 95 99 103 106 109 111 110 110 109 111 113 111 107 105 105 104 103 102 101 98 94 90 88 88 86 85 83 79 76 74 76 82 84 80 75 72 69 65 62 59 57 56
22 20 20 21 22 23 24 25 26 28 29 30 32 33 34 36 37 39 40 42 44 45 47 48 50 51 52 53 55 57 59 60 61 65 68 71 72 71 71 74 79 83 85 85 87 91 94 98 102 105 107 109 110 110 111 113 115 114 110 109 109 109 106 105 104 100 94 91 89 89 87 88 87 84 79 77 79 86 90 83 76 73 69 64 60 59 58 58
22 20 19 20 21 22 23 24 25 26 28 29 31 32 33 35 36 38 39 41 43 45 46 47 47 48 50 51 53 55 57 59 61 63 65 66 66 65 66 70 75 80 83 84 86 89 92 96 100 103 105 108 110 111 113 115 116 115 113 112 112 111 109 109 107 102 98 95 93 90 89 89 88 86 83 81 84 90 90 83 76 74 72 67 64 63 63 63
23 20 19 19 19 20 21 23 24 25 27 28 30 31 33 34 36 37 39 40 41 42 43 44 44 45 47 50 52 55 57 59 58 57 57 57 58 60 63 66 71 77 80 83 85 87 90 93 97 101 103 106 110 113 115 116 117 116 115 114 112 110 109 109 108 105 103 100 96 92 91 90 89 87 84 82 88 92 89 83 79 76 73 70 67 67 67 66
23 20 19 18 19 19 20 22 23 24 26 27 29 30 32 33 35 36 38 39 39 39 40 40 41 43 45 49 52 55 56 55 52 49 49 51 53 56 60 63 68 73 77 81 84 85 87 90 95 99 101 105 109 113 114 116 117 117 116 114 112 111 110 109 108 107 105 103 99 95 93 92 90 89 86 84 89 92 88 84 81 77 73 71 68 68 68 67
24 21 20 19 19 20 20 21 23 24 25 27 28 29 31 32 33 34 35 36 35 36 37 38 40 42 45 49 52 53 52 50 47 45 45 47 50 53 57 60 64 68 73 78 82 84 85 88 93 97 99 103 107 111 113 114 116 117 116 114 113 113 112 111 110 108 104 101 100 99 96 94 92 90 89 88 90 92 88 85 82 78 76 72 69 68 69 66
24 23 21 20 20 20 21 22 23 24 25 27 27 29 30 31 32 32 32 32 32 32 34 35 37 40 44 48 49 49 48 46 45 43 42 44 47 49 53 57 60 64 69 73 78 81 83 86 91 95 97 100 105 109 112 113 115 117 116 115 115 115 114 113 111 107 103 101 101 101 99 97 95 93 92 93 93 90 88 86 82 79 78 75 70 68 68 66
25 23 22 21 20 21 21 23 24 25 26 27 28 29 29 29 30 30 30 28 27 28 30 32 35 39 42 44 44 43 43 42 41 40 40 41 44 46 49 52 55 60 64 68 72 76 79 83 88 92 94 97 103 108 111 113 115 116 116 115 115 116 115 113 110 106 104 104 104 104 102 100 98 96 95 96 92 82 80 85 85 82 80 78 74 70 67 64
Wind_Direction
246 245 244 243 243 243 243 243 244 244 245 246 247 247 248 248 248 248 248 246 244 241 238 234 231 228 223 217 216 217 218 217 217 219 224 226 222 221 225 228 228 230 231 232 233 233 233 233 233 233 232 232 232 231 230 229 228 226 226 226 227 234 241 243 247 244 244 250 252 256 258 259 261 261 264 267 271 277 281 284 288 291 293 297 301 303 306 309
248 247 246 245 244 244 243 243 244 244 245 245 246 247 247 247 247 247 246 245 244 242 239 236 234 231 229 224 220 218 219 219 217 216 221 227 224 220 222 226 228 229 231 233 233 234 234 234 235 234 234 233 233 232 232 231 230 229 229 228 228 232 238 237 239 239 241 252 257 257 257 259 262 262 264 268 273 277 282 285 289 292 293 296 299 302 306 309
249 248 247 247 246 245 244 244 243 244 244 245 245 246 246 247 247 247 246 245 244 243 241 238 236 234 232 229 226 222 220 221 219 215 219 225 225 221 220 223 226 227 230 233 234 235 235 235 236 236 235 235 235 234 234 233 232 232 231 230 229 230 236 237 238 241 241 245 253 256 257 261 264 263 265 270 276 281 284 287 289 290 292 297 299 303 306 309
249 248 248 247 246 246 245 244 243 243 244 244 245 245 246 246 247 247 246 245 243 243 242 240 238 236 234 232 230 227 224 222 221 217 218 222 224 223 223 224 224 225 226 231 234 235 235 236 236 236 236 236 236 236 236 236 234 234 233 232 231 230 234 238 239 241 242 243 246 251 255 259 261 263 265 272 280 282 283 286 285 285 292 296 298 303 306 308
250 249 248 248 247 246 245 244 244 243 243 244 244 244 244 245 246 246 246 246 244 243 242 241 239 238 236 235 233 231 228 226 224 220 218 220 222 222 224 227 225 224 223 225 231 234 235 236 237 237 237 237 237 237 237 237 236 236 235 234 233 233 234 238 240 241 243 244 246 249 251 253 258 261 264 271 276 277 283 283 279 283 293 296 298 302 304 307
251 250 249 249 248 247 246 245 244 243 243 243 243 243 243 244 244 245 245 245 245 244 243 241 240 239 238 236 235 234 232 230 226 224 220 219 221 221 224 228 227 226 224 222 226 231 234 235 237 238 238 238 237 238 238 238 238 237 237 236 235 236 236 238 240 241 242 243 246 248 248 250 255 258 262 267 271 279 286 279 277 288 294 294 296 299 301 304
253 252 251 250 249 249 248 247 246 245 244 243 243 243 243 243 243 243 244 244 244 244 243 242 240 240 239 238 236 235 235 233 229 227 224 221 221 221 223 227 228 228 227 224 223 227 231 232 234 236 238 238 237 238 239 239 239 238 238 238 237 237 238 239 240 241 242 243 244 246 248 250 253 258 261 264 271 279 278 273 280 288 290 291 293 296 299 302
256 254 253 252 251 250 249 248 248 247 246 245 244 244 244 243 243 243 243 243 243 242 242 242 241 239 239 238 238 236 236 235 232 230 228 224 222 221 223 227 228 227 228 227 224 224 227 230 231 233 236 238 238 238 238 239 239 239 239 239 239 239 239 239 240 241 242 243 244 246 248 249 253 258 260 263 267 269 268 273 280 283 286 288 290 295 298 300
257 256 255 254 253 251 250 249 248 248 247 247 246 245 245 244 243 243 243 243 242 242 241 241 240 239 238 238 238 238 237 235 234 233 231 227 225 223 223 226 228 227 227 228 227 225 225 227 229 231 233 235 236 237 237 237 237 238 239 240 240 240 241 241 241 241 242 243 245 246 248 250 253 255 259 261 259 263 269 271 274 279 283 285 289 294 295 296
258 257 256 255 254 253 252 251 249 248 248 247 247 246 246 245 245 244 244 243 243 242 241 241 240 239 239 238 238 238 237 236 235 234 233 230 227 226 225 225 227 228 227 227 228 227 225 226 227 227 227 228 231 233 234 235 236 238 240 241 241 241 242 242 242 242 243 243 245 246 248 250 252 254 257 257 257 262 266 266 272 278 279 282 288 290 289 289
259 257 256 255 255 254 253 252 251 250 249 248 247 247 246 245 245 244 244 244 243 243 242 241 240 239 239 238 238 238 237 237 235 234 234 232 229 227 227 227 227 228 228 228 227 227 226 226 227 227 224 224 227 231 234 235 235 237 238 240 241 241 241 242 242 242 242 243 244 246 247 248 249 253 253 252 255 256 257 264 271 274 277 280 284 286 287 284
260 259 257 256 255 254 253 252 252 251 250 249 248 247 247 246 245 245 244 244 243 243 243 242 241 240 239 239 239 238 237 237 236 235 234 234 232 229 228 228 228 228 228 228 228 227 226 226 227 228 226 225 226 230 234 234 233 233 236 238 240 241 241 242 243 242 242 242 243 244 246 245 243 246 247 247 250 252 256 264 266 270 276 279 281 281 278 275
260 259 258 257 255 255 254 253 252 251 251 250 249 248 248 247 246 245 244 244 243 243 243 242 242 240 239 239 238 238 238 237 237 236 235 234 233 231 229 229 229 229 228 228 227 227 226 226 227 229 229 227 224 228 232 231 231 232 234 237 239 240 241 242 242 243 242 242 243 244 244 243 242 243 243 242 246 251 256 261 263 268 275 277 276 274 268 264
259 258 257 256 255 254 254 253 252 251 251 250 250 249 249 248 247 246 245 245 244 243 242 242 241 241 240 239 238 237 237 237 237 236 236 235 235 233 232 230 229 229 229 228 227 227 226 226 227 227 230 229 225 229 231 230 231 232 233 234 236 239 239 241 242 242 243 243 243 243 240 241 243 243 240 239 241 243 250 256 257 263 272 271 267 265 262 255
260 259 258 257 256 254 253 253 252 251 250 250 249 249 249 248 248 247 246 245 244 244 243 242 241 241 240 239 238 238 237 237 237 236 236 236 236 235 233 232 231 230 229 229 228 227 227 227 227 227 229 229 228 231 230 229 232 233 232 230 232 236 237 239 241 242 242 242 242 239 235 235 236 236 235 236 235 236 244 248 251 260 266 263 257 253 250 248
262 261 259 258 257 255 254 253 252 251 250 249 249 249 249 248 248 247 246 246 245 244 244 243 242 241 240 240 239 238 237 237 237 236 236 236 236 235 234 233 233 232 230 229 229 228 227 227 227 228 228 228 229 232 230 229 232 233 233 229 227 232 233 235 238 239 239 240 239 234 233 230 226 227 230 229 226 229 235 234 243 258 261 255 247 239 237 242
261 261 260 259 258 257 255 254 253 251 250 249 248 248 248 248 248 247 246 246 245 244 244 243 242 241 241 240 240 239 238 237 237 237 236 235 235 235 235 234 233 233 232 231 230 229 228 227 227 228 228 227 229 231 230 229 230 231 232 229 225 227 229 231 233 234 236 236 233 230 230 225 218 220 226 221 216 221 225 227 236 248 253 249 234 223 229 236
260 260 259 259 259 258 257 255 254 253 251 250 249 248 247 247 247 247 247 246 245 245 244 243 243 242 241 241 240 240 239 238 237 237 236 236 236 235 235 234 233 233 233 232 231 230 229 228 227 228 229 229 230 230 229 229 229 230 233 231 227 226 226 228 229 230 232 229 226 224 223 220 216 216 214 207 209 215 216 221 228 231 237 235 222 215 223 230
262 261 260 258 258 258 257 256 255 254 252 251 249 248 247 247 246 246 246 246 245 245 244 243 243 242 241 241 240 240 240 239 238 237 237 237 236 236 235 235 234 233 232 232 232 231 230 229 227 228 230 231 229 228 228 229 229 229 232 233 229 226 224 227 227 225 224 221 218 218 216 214 208 203 201 200 206 205 194 207 223 224 225 221 213 212 219 225
262 261 261 259 258 257 257 256 256 255 254 252 251 249 248 247 247 246 246 246 245 245 244 243 243 242 242 241 241 240 240 239 238 238 237 237 237 237 236 235 234 233 232 232 232 232 231 229 229 229 230 230 228 228 228 228 229 229 231 232 230 225 221 221 223 220 216 212 209 211 210 203 197 195 197 199 201 194 182 205 216 209 213 215 209 209 216 222
260 260 260 260 259 258 257 256 255 255 254 253 252 250 249 248 247 247 246 245 245 245 244 244 243 242 242 241 241 241 240 240 239 238 237 237 237 237 237 237 235 234 233 232 232 232 231 230 230 230 230 229 229 228 228 228 228 229 230 231 230 226 219 215 218 217 212 207 205 208 204 197 196 197 198 196 195 190 186 201 206 195 205 213 208 205 213 220
259 258 258 258 258 258 257 257 256 255 254 253 252 251 250 249 248 247 247 246 245 244 244 244 243 242 242 241 241 241 240 240 239 239 238 237 237 236 237 237 236 235 234 232 232 232 231 230 230 231 230 229 228 228 228 227 227 229 229 230 230 227 220 212 214 215 211 206 205 207 203 197 198 197 196 194 190 190 190 194 194 191 199 208 208 203 207 216
258 257 256 256 256 256 256 256 256 255 254 253 252 251 250 249 248 247 247 246 246 245 244 244 243 243 242 241 241 241 240 240 239 239 238 237 237 236 236 236 236 236 235 233 232 232 230 229 229 231 231 230 229 228 227 227 227 228 228 229 229 227 220 212 211 212 209 206 204 206 204 199 200 196 194 193 189 190 190 186 184 186 192 199 203 199 200 212
258 257 256 255 255 255 255 255 255 255 255 254 253 252 250 249 248 248 247 246 246 246 245 244 244 243 242 241 241 241 240 240 239 239 239 238 237 236 236 236 235 235 235 234 232 232 231 230 229 230 231 231 230 228 228 227 227 228 227 227 227 227 223 215 210 210 210 207 204 207 207 202 202 200 195 193 190 188 184 180 180 186 192 194 194 193 196 207
260 259 257 256 255 254 254 254 254 254 254 254 254 253 252 250 249 248 247 246 245 245 245 245 244 243 243 242 241 241 240 239 239 239 238 238 238 237 236 236 235 235 234 234 233 231 231 231 231 230 231 231 231 230 229 228 227 227 227 226 226 226 224 217 209 208 211 209 205 204 205 203 203 203 200 195 191 187 185 188 190 191 194 194 189 190 196 201
263 261 259 258 256 255 254 254 253 253 253 253 253 254 253 252 251 249 248 247 245 245 245 245 244 244 243 243 242 241 240 240 239 239 238 238 238 237 237 236 235 234 233 233 233 232 231 232 232 231 231 231 231 230 229 229 227 227 227 226 225 225 224 219 209 207 211 210 207 203 203 204 202 202 203 197 190 187 186 189 189 187 191 194 189 191 194 196
264 263 261 259 258 256 255 254 254 253 252 252 252 252 252 253 252 251 250 248 246 245 245 244 244 244 244 243 243 242 241 240 239 239 239 238 238 237 237 236 235 234 233 232 232 232 231 231 231 231 231 230 230 230 230 230 227 226 227 226 225 224 224 221 213 208 210 211 208 204 204 206 203 201 202 198 192 189 188 188 186 184 188 191 192 194 194 194
267 265 263 261 260 258 256 255 254 253 252 251 251 250 250 251 251 251 251 250 248 246 246 245 244 244 243 243 243 243 242 241 240 239 239 238 238 237 237 236 236 235 233 232 232 231 231 231 230 229 230 230 229 230 230 230 227 226 227 226 225 224 223 222 217 210 209 211 209 206 206 207 206 204 200 196 194 192 193 193 188 186 187 189 194 196 194 195
272 268 265 263 262 260 258 256 255 254 253 252 251 250 250 249 249 250 250 250 250 248 247 246 245 244 243 243 243 242 242 242 241 240 239 238 238 237 237 236 236 235 234 232 232 231 231 231 231 229 229 230 229 229 230 229 227 227 227 225 224 223 222 222 219 213 210 208 208 209 207 206 210 208 199 196 196 195 197 197 191 189 186 185 192 194 193 197
278 273 269 266 263 261 259 257 256 255 253 252 251 250 250 249 249 248 248 249 249 248 248 247 246 245 244 243 243 242 242 241 241 241 240 239 237 237 237 236 235 235 234 233 232 231 230 230 231 230 228 229 230 230 230 229 228 228 227 225 224 223 222 221 219 215 210 204 206 210 208 206 211 211 203 198 199 200 202 199 194 191 186 183 188 190 192 196
284 279 274 270 266 263 260 258 256 255 254 253 252 251 250 249 249 248 248 248 248 247 248 247 247 246 245 244 243 242 242 241 241 240 240 239 238 237 237 236 235 235 234 233 232 232 230 229 230 230 228 228 229 230 230 229 228 228 228 226 224 224 223 221 219 216 210 203 207 210 207 207 210 211 208 203 203 205 204 202 198 194 190 187 187 189 194 197
286 283 279 274 269 265 262 260 258 256 255 253 252 251 250 249 249 248 247 247 246 246 246 246 247 247 246 245 244 243 242 241 240 240 240 239 239 237 237 236 235 235 234 233 232 232 231 229 228 229 228 227 228 229 229 228 227 228 228 226 225 224 223 221 219 217 211 208 210 209 207 208 208 210 210 208 207 207 206 204 200 197 194 191 190 192 197 198
285 283 280 276 272 267 263 261 259 258 257 255 253 252 251 250 249 248 247 247 246 246 246 246 246 246 246 246 245 245 244 242 241 240 240 239 239 238 237 236 235 235 235 233 232 232 231 229 228 228 228 227 227 228 229 228 226 227 227 226 224 224 224 221 219 217 214 212 212 210 208 206 206 210 211 210 210 209 207 206 203 199 196 193 194 195 198 199
284 282 280 277 274 270 266 263 260 259 258 256 254 252 251 250 249 248 248 247 246 245 246 246 246 246 246 246 246 246 245 244 243 242 240 239 239 238 237 236 235 235 235 234 232 231 231 230 228 227 226 225 225 227 227 227 226 226 226 225 223 223 223 221 218 217 215 214 213 212 209 205 206 210 211 211 212 212 210 208 205 202 198 195 195 196 199 201
283 281 279 276 274 271 268 264 261 260 258 257 255 253 252 251 250 249 249 248 248 246 246 246 246 246 246 245 245 245 245 245 244 243 242 240 239 238 237 237 236 235 234 234 232 231 230 230 229 227 226 225 224 226 227 227 226 226 226 225 222 221 222 221 218 215 215 214 214 213 209 205 206 210 211 211 213 214 212 212 209 204 199 196 196 196 197 199
283 280 277 275 273 271 268 265 262 259 258 257 256 254 253 253 252 251 250 249 249 248 247 246 246 246 246 245 245 245 245 245 244 244 243 241 240 238 236 236 236 235 234 234 233 231 230 230 229 227 226 226 224 225 227 227 226 226 226 226 223 222 223 222 218 215 214 213 214 215 212 207 206 210 212 210 212 214 213 213 212 207 202 199 198 197 197 199
283 279 277 274 272 270 267 264 261 259 258 258 257 255 254 253 253 253 252 251 250 249 249 247 247 246 246 245 245 245 245 244 244 244 243 242 241 239 236 236 236 235 234 233 233 231 230 231 230 227 226 226 223 222 224 226 226 225 226 226 223 221 222 222 219 215 214 213 213 214 214 212 207 209 213 211 211 214 214 215 213 208 206 203 200 199 199 201
284 281 277 275 272 269 266 264 262 260 258 257 257 256 255 254 253 252 252 252 251 250 250 249 248 248 246 245 244 244 245 244 243 244 244 242 241 240 237 236 235 235 234 233 233 231 229 230 230 226 225 225 224 222 222 224 225 224 225 225 223 220 221 222 219 216 214 213 213 213 214 214 210 208 212 212 211 213 216 217 215 211 208 207 203 202 203 203
287 283 279 275 272 269 267 265 263 261 259 258 257 256 255 255 254 253 252 252 251 251 251 250 249 248 248 247 245 244 244 245 243 242 243 242 241 240 238 236 235 234 233 232 232 231 229 229 229 227 224 224 224 223 220 222 224 223 223 224 223 220 220 221 219 215 213 213 213 212 211 214 212 209 212 214 212 213 216 218 216 213 211 209 206 206 207 207
290 285 281 276 272 270 268 267 265 263 261 259 258 256 256 255 254 253 252 252 251 251 251 250 249 249 248 248 246 244 244 245 244 242 242 242 241 239 238 237 235 234 234 232 231 230 229 228 228 226 225 223 223 223 221 220 222 223 222 223 223 222 220 221 219 216 213 213 213 212 210 212 214 210 211 215 214 213 216 218 216 214 212 210 209 208 209 211
291 286 281 277 274 271 269 267 265 263 261 260 259 258 257 256 255 254 253 252 252 251 251 251 250 250 249 248 248 246 244 244 244 243 242 241 240 238 237 237 235 234 234 233 231 229 228 227 227 226 226 224 223 223 222 220 220 222 222 221 222 222 221 221 220 217 214 213 213 212 209 210 214 211 210 216 217 214 215 217 216 214 212 211 210 209 210 212
293 285 280 277 275 272 269 266 264 263 261 260 259 258 257 256 256 255 254 254 253 252 252 251 251 250 249 248 248 247 245 244 244 244 243 241 240 238 236 236 235 233 233 232 231 229 227 226 226 226 226 225 223 222 221 220 219 220 221 220 219 220 219 218 218 217 215 214 214 213 210 210 214 212 210 216 220 218 216 218 217 214 212 212 212 210 210 212
294 287 281 278 275 272 270 266 264 263 261 260 259 258 257 257 256 256 256 255 255 254 254 253 252 252 251 249 249 248 246 245 244 244 243 241 240 238 236 235 235 233 231 231 230 228 226 225 224 224 225 224 223 221 220 220 220 220 220 220 219 218 218 217 216 215 213 213 213 213 211 210 212 211 210 215 221 221 219 218 219 216 213 213 213 211 211 211
298 289 283 280 276 273 271 268 266 264 263 262 261 259 259 258 258 258 258 257 257 256 256 256 255 254 253 252 251 249 248 246 245 244 243 242 240 238 235 234 235 234 231 230 230 229 226 225 224 223 224 224 222 221 220 220 220 220 219 220 220 218 219 218 216 214 213 211 212 212 211 210 211 211 210 214 220 224 223 219 219 219 215 213 213 211 210 211
303 294 287 282 278 274 272 270 268 267 265 264 262 261 260 260 259 259 260 260 260 259 259 259 258 258 257 255 254 253 251 249 247 246 245 243 241 238 235 234 234 235 232 230 229 229 227 225 223 222 222 223 222 221 219 219 219 218 217 218 219 218 218 219 218 215 213 212 212 212 211 210 210 209 210 212 217 223 225 220 217 219 218 215 214 213 212 213
308 300 293 287 282 278 274 271 269 268 267 266 265 264 263 262 262 262 262 262 262 262 261 261 261 261 261 260 258 257 255 252 249 247 246 244 242 239 236 234 234 235 234 231 228 228 226 224 223 222 221 221 221 221 219 219 220 218 215 215 216 216 215 217 217 216 213 212 213 212 211 210 210 208 209 211 215 221 225 221 217 219 221 218 216 215 214 214
312 306 298 291 287 282 278 274 272 270 269 268 268 267 266 266 265 265 264 264 264 264 264 264 264 265 265 264 262 260 258 255 251 248 247 245 244 241 237 235 234 234 234 232 229 227 226 224 223 221 220 220 220 220 219 219 219 218 216 215 216 215 213 214 215 213 212 212 212 212 211 211 210 209 208 211 216 220 223 222 218 218 219 217 214 214 215 214
316 311 304 296 290 285 282 279 276 274 272 270 269 269 269 268 268 267 267 267 267 267 268 268 268 268 267 266 265 263 260 256 253 252 251 249 246 243 239 234 233 233 232 232 230 227 225 224 223 221 219 218 219 219 219 218 218 218 216 215 215 215 214 213 213 211 210 210 211 211 211 210 210 209 208 212 218 220 220 222 220 218 218 218 215 215 217 217
320 316 309 303 297 291 287 283 280 278 275 274 273 272 271 271 270 270 270 271 272 273 274 273 272 271 269 268 266 263 262 261 260 258 256 252 246 242 239 235 232 232 230 230 230 227 224 223 223 222 219 217 218 219 218 218 218 217 217 215 213 214 214 214 213 212 210 208 209 210 211 210 209 208 206 210 220 222 219 220 221 219 219 219 216 216 219 220
325 321 316 310 305 299 294 290 285 283 281 279 278 277 276 275 274 274 276 277 278 278 278 276 274 273 270 268 266 266 267 268 267 263 257 252 246 241 238 236 233 231 229 229 228 227 224 222 222 221 218 217 217 218 218 218 217 217 217 215 213 213 214 213 212 212 210 209 208 209 210 209 209 208 205 209 218 222 219 219 220 219 219 219 217 216 219 220
330 327 322 318 313 308 302 297 293 290 288 286 284 283 282 281 282 283 283 284 284 282 280 277 275 272 269 268 269 271 272 272 269 265 259 252 246 241 237 235 233 231 229 228 227 226 223 222 222 221 218 216 216 217 217 217 217 216 216 215 213 212 212 213 212 210 209 210 209 209 209 209 208 207 206 208 216 220 218 217 219 219 219 219 218 216 217 219
334 332 329 325 320 315 310 305 301 298 295 294 292 291 290 290 290 290 290 290 290 288 284 279 276 273 271 271 273 275 274 272 269 264 258 252 247 242 237 234 232 231 230 228 226 225 223 221 221 220 218 216 216 216 216 216 216 215 215 215 213 211 211 212 211 209 208 209 209 209 210 209 208 207 206 208 214 218 218 217 217 218 218 220 220 218 217 218
Height
10923 10923 10924 10925 10925 10926 10928 10929 10930 10931 10932 10933 10935 10936 10938 10939 10941 10943 10944 10945 10946 10948 10950 10951 10953 10955 10957 10957 10958 10959 10960 10961 10962 10963 10963 10963 10965 10968 10969 10970 10971 10972 10973 10975 10977 10979 10982 10984 10987 10990 10993 10996 10999 11002 11005 11008 11010 11013 11014 11016 11018 11018 11018 11020 11018 11019 11021 11019 11020 11022 11024 11026 11027 11028 11027 11026 11026 11025 11024 11025 11024 11023 11022 11020 11017 11015 11013 11011
10918 10919 10919 10920 10921 10922 10923 10924 10926 10927 10928 10929 10930 10932 10933 10935 10936 10938 10939 10941 10942 10943 10945 10947 10949 10951 10953 10954 10955 10955 10956 10957 10959 10960 10960 10960 10962 10964 10966 10967 10968 10969 10970 10971 10972 10975 10978 10980 10983 10986 10989 10992 10995 10998 11001 11004 11007 11009 11011 11014 11015 11014 11014 11015 11014 11017 11020 11016 11017 11020 11022 11024 11025 11026 11026 11025 11025 11024 11023 11023 11022 11021 11020 11018 11016 11014 11012 11010
10913 10914 10914 10915 10916 10917 10918 10920 10921 10922 10923 10924 10926 10927 10929 10930 10931 10933 10934 10936 10937 10939 10941 10943 10945 10946 10948 10950 10951 10952 10953 10953 10955 10957 10957 10957 10958 10961 10963 10963 10964 10966 10967 10968 10969 10971 10974 10976 10979 10981 10984 10988 10991 10994 10997 11000 11003 11005 11008 11010 11012 11012 11010 11011 11011 11014 11017 11016 11016 11017 11020 11023 11022 11023 11025 11024 11023 11023 11022 11020 11019 11019 11017 11015 11014 11013 11011 11009
10908 10908 10909 10910 10911 10912 10913 10914 10916 10917 10918 10919 10921 10922 10924 10925 10926 10927 10929 10931 10933 10935 10936 10938 10940 10942 10943 10945 10947 10948 10949 10950 10951 10952 10953 10954 10955 10958 10959 10959 10961 10963 10964 10966 10966 10968 10970 10973 10974 10977 10980 10984 10987 10990 10993 10996 10999 11001 11003 11006 11007 11008 11008 11008 11009 11011 11013 11015 11016 11016 11021 11022 11019 11020 11024 11024 11022 11020 11019 11016 11016 11016 11015 11013 11011 11011 11009 11007
10903 10903 10903 10904 10905 10906 10907 10908 10910 10912 10913 10914 10915 10917 10919 10920 10921 10922 10923 10925 10928 10930 10931 10933 10935 10937 10939 10940 10942 10943 10945 10946 10947 10948 10949 10951 10953 10955 10956 10956 10957 10959 10962 10963 10963 10965 10967 10969 10970 10973 10976 10980 10983 10986 10988 10991 10994 10996 10998 11001 11002 11003 11006 11006 11006 11008 11010 11012 11014 11016 11020 11020 11018 11019 11023 11025 11021 11017 11017 11014 11012 11013 11013 11011 11010 11009 11008 11006
10897 10898 10898 10898 10899 10900 10901 10902 10904 10905 10907 10908 10909 10911 10912 10914 10915 10916 10918 10920 10922 10924 10925 10927 10929 10931 10933 10935 10937 10938 10940 10941 10942 10944 10946 10948 10949 10952 10953 10952 10954 10956 10958 10960 10961 10962 10964 10966 10967 10970 10972 10976 10979 10981 10983 10986 10989 10991 10993 10995 10997 10999 11001 11002 11003 11005 11006 11009 11012 11015 11017 11017 11017 11019 11023 11025 11020 11016 11016 11011 11010 11011 11011 11010 11008 11008 11007 11005
10892 10892 10893 10893 10894 10895 10896 10897 10898 10899 10900 10901 10903 10904 10906 10907 10909 10910 10912 10914 10915 10917 10919 10921 10924 10925 10927 10930 10932 10934 10935 10936 10938 10940 10941 10943 10946 10948 10949 10948 10950 10953 10954 10957 10959 10959 10961 10963 10964 10967 10968 10971 10974 10976 10978 10981 10984 10985 10987 10990 10992 10993 10995 10997 10999 11001 11003 11006 11008 11011 11013 11013 11015 11017 11021 11024 11020 11018 11018 11013 11011 11011 11010 11009 11007 11007 11006 11004
10886 10887 10887 10887 10888 10889 10890 10891 10892 10893 10894 10895 10897 10898 10899 10901 10902 10904 10906 10907 10909 10911 10913 10915 10917 10919 10922 10924 10926 10928 10929 10930 10933 10935 10936 10939 10941 10943 10944 10945 10946 10949 10951 10953 10955 10957 10958 10959 10962 10964 10965 10968 10970 10972 10973 10976 10978 10979 10981 10983 10985 10988 10991 10993 10995 10997 10999 11002 11004 11006 11008 11010 11014 11016 11018 11022 11022 11019 11017 11014 11012 11011 11009 11007 11006 11005 11004 11002
10880 10880 10881 10881 10882 10883 10884 10885 10886 10887 10888 10889 10890 10891 10893 10894 10896 10898 10899 10901 10903 10905 10907 10909 10910 10913 10916 10918 10920 10922 10923 10925 10928 10930 10931 10934 10937 10939 10940 10941 10943 10945 10947 10949 10951 10953 10955 10957 10960 10961 10963 10964 10965 10966 10968 10971 10972 10973 10975 10977 10980 10983 10986 10988 10991 10993 10996 10998 11000 11002 11005 11008 11012 11014 11015 11019 11020 11017 11014 11012 11011 11010 11008 11005 11004 11003 11002 11001
10873 10873 10874 10874 10875 10876 10877 10878 10879 10880 10881 10883 10884 10885 10886 10887 10889 10891 10892 10894 10896 10898 10900 10902 10904 10907 10909 10912 10914 10915 10917 10920 10922 10924 10926 10928 10931 10934 10935 10937 10938 10940 10943 10945 10947 10949 10952 10955 10956 10958 10959 10959 10960 10961 10963 10966 10968 10969 10970 10972 10975 10978 10981 10983 10986 10989 10992 10995 10996 10998 11001 11006 11009 11011 11012 11015 11014 11013 11012 11009 11008 11008 11007 11004 11003 11002 11001 11000
10865 10866 10866 10867 10868 10869 10870 10871 10872 10873 10875 10876 10877 10878 10879 10880 10882 10884 10885 10887 10889 10891 10893 10895 10898 10901 10903 10906 10908 10909 10911 10913 10916 10918 10920 10922 10925 10928 10930 10932 10934 10936 10939 10941 10943 10946 10949 10951 10952 10953 10954 10956 10957 10958 10960 10963 10965 10966 10966 10968 10970 10973 10976 10978 10981 10984 10988 10990 10992 10994 10998 11003 11006 11006 11008 11009 11009 11009 11008 11006 11005 11005 11005 11004 11002 11001 11000 10999
10856 10857 10858 10859 10860 10861 10862 10863 10865 10866 10867 10869 10870 10871 10871 10873 10875 10877 10878 10880 10882 10884 10886 10888 10891 10894 10896 10899 10901 10903 10905 10907 10909 10912 10914 10916 10919 10922 10925 10927 10929 10931 10933 10936 10939 10943 10945 10947 10948 10949 10951 10953 10954 10956 10957 10959 10961 10962 10962 10964 10966 10969 10971 10973 10976 10980 10983 10985 10987 10990 10994 10999 11001 11002 11003 11004 11004 11005 11005 11003 11003 11002 11002 11002 11001 11001 11000 10999
10846 10847 10849 10850 10851 10852 10853 10855 10857 10858 10859 10860 10862 10863 10864 10866 10868 10869 10871 10873 10875 10877 10879 10881 10883 10886 10889 10892 10894 10896 10899 10900 10903 10905 10907 10910 10912 10915 10919 10921 10924 10926 10928 10931 10935 10938 10940 10943 10944 10946 10948 10949 10952 10954 10953 10954 10957 10959 10960 10961 10963 10965 10967 10969 10972 10975 10978 10980 10983 10987 10991 10993 10995 10997 10999 11000 11002 11002 11001 11001 11000 11000 11001 11001 11000 10999 10999 10999
10837 10838 10839 10840 10841 10842 10844 10845 10847 10849 10851 10852 10854 10855 10856 10858 10860 10862 10863 10865 10867 10869 10871 10873 10876 10878 10881 10884 10886 10889 10891 10893 10896 10899 10901 10903 10906 10909 10912 10915 10918 10920 10923 10926 10929 10932 10935 10937 10940 10943 10943 10945 10950 10949 10948 10952 10955 10955 10957 10959 10960 10961 10964 10966 10968 10971 10974 10976 10980 10984 10986 10987 10990 10993 10994 10996 10999 10999 10999 10998 10998 10999 10999 10999 10999 10998 10998 10998
10828 10828 10829 10830 10831 10832 10833 10835 10837 10839 10841 10843 10845 10846 10847 10849 10851 10853 10855 10857 10859 10861 10863 10865 10868 10870 10873 10876 10878 10881 10884 10886 10889 10892 10894 10896 10899 10902 10905 10909 10912 10914 10918 10921 10924 10926 10929 10932 10936 10938 10939 10942 10945 10943 10946 10951 10951 10952 10954 10955 10956 10958 10961 10963 10965 10967 10970 10972 10976 10979 10980 10982 10985 10988 10991 10993 10995 10996 10996 10996 10996 10997 10998 10998 10998 10998 10998 10998
10819 10818 10820 10820 10820 10821 10823 10825 10826 10829 10831 10833 10835 10836 10837 10839 10841 10843 10845 10848 10850 10852 10855 10857 10860 10862 10865 10867 10870 10873 10876 10879 10881 10884 10887 10889 10892 10894 10898 10902 10905 10908 10912 10915 10918 10921 10924 10927 10930 10933 10935 10938 10939 10939 10944 10947 10947 10948 10949 10951 10954 10956 10958 10960 10962 10964 10966 10969 10972 10974 10975 10978 10981 10984 10987 10990 10992 10994 10995 10995 10996 10996 10996 10997 10997 10997 10997 10997
10809 10808 10809 10810 10810 10811 10812 10814 10816 10818 10821 10823 10824 10826 10827 10829 10831 10833 10835 10838 10840 10843 10845 10848 10851 10853 10857 10859 10862 10865 10868 10870 10873 10876 10879 10881 10884 10886 10890 10895 10898 10902 10905 10909 10912 10915 10919 10922 10925 10927 10930 10933 10935 10936 10940 10941 10941 10942 10944 10948 10951 10952 10955 10957 10959 10962 10964 10966 10969 10970 10972 10974 10977 10980 10984 10987 10989 10992 10994 10995 10996 10995 10996 10997 10996 10996 10997 10997
10799 10798 10799 10800 10800 10800 10801 10803 10804 10807 10810 10812 10814 10816 10817 10818 10820 10822 10824 10827 10830 10833 10836 10839 10841 10844 10848 10851 10853 10856 10859 10862 10865 10867 10870 10874 10877 10879 10882 10887 10891 10895 10899 10903 10906 10909 10912 10915 10919 10922 10925 10929 10930 10931 10933 10933 10935 10939 10941 10944 10947 10951 10954 10955 10957 10960 10962 10964 10966 10967 10969 10971 10973 10977 10981 10983 10986 10989 10991 10993 10994 10996 10998 10998 10997 10996 10996 10996
10789 10788 10788 10789 10790 10789 10790 10791 10793 10794 10797 10800 10803 10805 10807 10808 10810 10811 10813 10816 10818 10821 10825 10828 10831 10835 10839 10842 10844 10847 10849 10853 10856 10859 10863 10866 10869 10871 10874 10879 10883 10888 10892 10896 10899 10903 10906 10909 10914 10919 10920 10921 10921 10923 10926 10928 10933 10938 10938 10940 10945 10949 10952 10954 10956 10959 10960 10962 10964 10965 10966 10969 10971 10974 10978 10981 10984 10987 10988 10990 10993 10996 10997 10997 10996 10995 10996 10996
10776 10776 10776 10777 10778 10778 10778 10780 10781 10782 10785 10788 10791 10793 10796 10797 10799 10800 10802 10804 10807 10810 10813 10817 10820 10825 10829 10832 10834 10837 10840 10843 10847 10851 10854 10857 10861 10863 10866 10870 10875 10880 10885 10888 10892 10896 10899 10904 10910 10912 10911 10910 10914 10918 10921 10926 10931 10933 10934 10937 10942 10946 10949 10952 10954 10957 10959 10960 10961 10962 10964 10967 10969 10972 10975 10978 10981 10984 10985 10989 10993 10996 10996 10996 10995 10995 10994 10995
10762 10764 10764 10764 10766 10766 10766 10767 10769 10771 10773 10775 10778 10781 10784 10786 10788 10790 10791 10793 10796 10798 10802 10806 10809 10813 10818 10821 10824 10827 10830 10833 10837 10841 10845 10849 10852 10855 10858 10862 10867 10872 10877 10880 10885 10889 10893 10900 10904 10902 10901 10904 10909 10914 10917 10923 10927 10928 10930 10934 10938 10942 10946 10949 10952 10954 10957 10958 10959 10960 10962 10965 10967 10969 10972 10975 10978 10980 10983 10988 10992 10995 10996 10996 10994 10993 10993 10994
10746 10750 10751 10751 10753 10754 10753 10754 10756 10758 10760 10762 10765 10768 10771 10774 10776 10778 10780 10782 10784 10787 10790 10793 10797 10802 10806 10810 10813 10816 10819 10823 10827 10831 10836 10839 10843 10847 10851 10853 10858 10863 10868 10873 10878 10882 10888 10894 10894 10891 10893 10898 10903 10908 10912 10918 10921 10923 10926 10930 10934 10938 10942 10947 10950 10952 10954 10956 10957 10958 10960 10962 10964 10966 10970 10972 10975 10977 10981 10986 10990 10994 10997 10997 10994 10992 10992 10992
10731 10735 10737 10737 10739 10740 10740 10741 10742 10745 10747 10750 10753 10755 10758 10761 10764 10767 10769 10771 10773 10776 10779 10782 10786 10790 10794 10798 10801 10804 10808 10812 10817 10821 10825 10829 10834 10839 10842 10844 10849 10854 10859 10866 10871 10875 10881 10884 10883 10883 10887 10892 10898 10903 10907 10911 10915 10918 10921 10925 10929 10933 10938 10943 10945 10947 10950 10952 10954 10956 10958 10960 10962 10964 10968 10970 10972 10975 10979 10983 10986 10990 10995 10996 10993 10991 10990 10991
10717 10720 10722 10724 10725 10726 10727 10728 10729 10732 10734 10737 10739 10742 10745 10747 10750 10754 10756 10759 10762 10764 10767 10771 10774 10779 10782 10786 10789 10792 10796 10801 10805 10810 10815 10818 10823 10829 10832 10835 10841 10845 10850 10856 10861 10866 10871 10872 10873 10877 10882 10886 10892 10897 10901 10905 10909 10912 10915 10920 10924 10927 10933 10937 10941 10945 10947 10950 10953 10955 10957 10959 10961 10962 10965 10967 10968 10972 10977 10980 10983 10986 10990 10992 10990 10988 10988 10990
10703 10706 10708 10710 10712 10714 10714 10715 10717 10719 10721 10723 10726 10729 10731 10734 10737 10740 10743 10747 10750 10752 10755 10759 10763 10767 10770 10774 10778 10780 10784 10790 10795 10799 10804 10807 10812 10817 10821 10825 10831 10835 10840 10846 10851 10858 10862 10863 10866 10872 10876 10880 10885 10891 10895 10898 10902 10906 10910 10915 10918 10922 10927 10932 10938 10942 10944 10947 10949 10951 10954 10957 10958 10960 10962 10964 10966 10970 10973 10977 10980 10983 10986 10986 10985 10985 10987 10990
10690 10693 10695 10696 10698 10701 10701 10703 10705 10706 10709 10710 10713 10716 10717 10720 10723 10727 10731 10732 10737 10742 10743 10746 10751 10754 10758 10762 10765 10769 10774 10779 10783 10787 10792 10796 10801 10806 10809 10814 10820 10824 10830 10837 10842 10848 10853 10854 10859 10864 10868 10872 10877 10882 10887 10890 10895 10901 10904 10908 10912 10917 10923 10929 10934 10938 10940 10943 10946 10949 10952 10953 10955 10958 10960 10963 10965 10967 10969 10972 10976 10980 10982 10982 10983 10984 10985 10987
10678 10680 10681 10681 10684 10687 10688 10690 10691 10693 10695 10696 10700 10703 10704 10707 10709 10713 10718 10717 10724 10731 10729 10734 10739 10740 10746 10750 10752 10757 10763 10768 10771 10776 10781 10784 10789 10793 10797 10803 10807 10812 10819 10827 10833 10839 10842 10844 10850 10856 10859 10864 10870 10875 10879 10881 10888 10895 10897 10900 10906 10911 10918 10924 10929 10934 10937 10939 10943 10947 10950 10951 10954 10957 10959 10962 10965 10967 10968 10970 10974 10977 10979 10980 10981 10982 10983 10984
10667 10668 10668 10669 10671 10673 10675 10677 10677 10679 10681 10683 10686 10689 10691 10694 10695 10700 10703 10703 10712 10719 10716 10721 10727 10728 10734 10738 10739 10745 10751 10755 10760 10765 10769 10772 10777 10780 10785 10791 10795 10800 10809 10817 10823 10827 10831 10835 10840 10845 10849 10855 10862 10866 10867 10871 10881 10887 10888 10892 10899 10906 10913 10918 10922 10928 10932 10935 10941 10945 10947 10950 10953 10954 10957 10961 10964 10966 10968 10970 10972 10974 10976 10978 10979 10980 10980 10981
10657 10657 10657 10658 10659 10661 10662 10664 10664 10665 10667 10669 10673 10675 10678 10680 10682 10687 10688 10690 10699 10703 10703 10709 10713 10715 10720 10723 10727 10733 10738 10743 10747 10752 10756 10761 10765 10767 10773 10780 10783 10788 10797 10805 10809 10814 10820 10824 10828 10836 10843 10848 10852 10855 10856 10864 10874 10878 10879 10886 10894 10901 10906 10910 10916 10922 10926 10932 10939 10942 10945 10948 10950 10951 10955 10959 10961 10963 10965 10967 10970 10971 10973 10975 10976 10977 10978 10980
10648 10648 10648 10648 10648 10650 10650 10651 10652 10652 10654 10656 10659 10663 10665 10667 10671 10673 10674 10680 10686 10688 10691 10696 10698 10701 10706 10710 10715 10720 10725 10729 10734 10738 10742 10747 10752 10756 10761 10767 10770 10776 10785 10792 10797 10802 10808 10813 10819 10828 10837 10840 10842 10844 10848 10857 10867 10869 10873 10882 10888 10892 10896 10902 10910 10915 10921 10930 10935 10937 10941 10944 10946 10949 10953 10956 10958 10959 10961 10964 10967 10968 10970 10972 10974 10976 10978 10980
10641 10640 10640 10640 10640 10640 10640 10641 10641 10641 10642 10644 10647 10650 10652 10655 10657 10659 10663 10668 10671 10674 10678 10681 10683 10687 10693 10696 10702 10707 10710 10715 10720 10723 10728 10733 10739 10744 10748 10753 10758 10766 10773 10779 10783 10787 10793 10803 10812 10818 10824 10829 10831 10835 10841 10850 10859 10862 10866 10874 10880 10884 10888 10895 10904 10909 10918 10929 10931 10932 10936 10939 10943 10947 10949 10952 10953 10955 10959 10962 10964 10966 10968 10969 10971 10974 10976 10978
10633 10632 10632 10632 10632 10632 10632 10632 10631 10631 10632 10634 10637 10638 10640 10643 10644 10646 10650 10652 10657 10663 10664 10666 10670 10674 10678 10682 10689 10693 10696 10702 10706 10710 10714 10718 10724 10730 10735 10740 10749 10754 10758 10763 10768 10774 10782 10794 10802 10804 10811 10818 10821 10825 10832 10840 10849 10853 10856 10864 10872 10876 10880 10889 10898 10905 10915 10923 10924 10926 10931 10934 10939 10941 10944 10947 10949 10952 10956 10959 10961 10963 10966 10968 10969 10971 10973 10974
10625 10624 10624 10624 10624 10624 10625 10624 10624 10623 10623 10625 10627 10627 10629 10631 10632 10635 10637 10639 10645 10650 10649 10652 10658 10661 10664 10670 10676 10679 10682 10689 10693 10696 10701 10704 10708 10714 10719 10728 10737 10740 10742 10749 10758 10766 10773 10782 10788 10790 10798 10807 10813 10818 10823 10832 10840 10843 10846 10854 10863 10868 10872 10882 10892 10900 10910 10915 10916 10919 10923 10929 10933 10935 10938 10943 10945 10948 10951 10954 10957 10960 10963 10965 10967 10969 10970 10972
10618 10616 10616 10616 10616 10616 10617 10617 10617 10615 10615 10616 10617 10618 10619 10620 10622 10624 10625 10628 10633 10636 10638 10640 10644 10648 10652 10658 10663 10665 10668 10675 10678 10681 10686 10689 10693 10698 10705 10715 10724 10726 10729 10737 10747 10754 10759 10764 10769 10774 10783 10793 10802 10807 10813 10821 10827 10830 10834 10842 10851 10857 10863 10874 10884 10893 10901 10906 10908 10911 10917 10925 10927 10928 10933 10937 10940 10943 10946 10949 10953 10956 10959 10962 10964 10967 10969 10970
10610 10608 10607 10607 10607 10608 10609 10609 10609 10608 10607 10607 10608 10609 10610 10611 10613 10614 10615 10618 10620 10624 10627 10627 10631 10636 10638 10644 10649 10650 10654 10661 10663 10665 10669 10673 10677 10685 10694 10702 10706 10710 10715 10722 10731 10739 10746 10750 10753 10762 10774 10784 10794 10801 10805 10809 10813 10819 10825 10831 10842 10851 10856 10864 10874 10883 10890 10896 10900 10905 10912 10918 10920 10921 10927 10932 10936 10939 10942 10945 10948 10951 10955 10958 10961 10964 10966 10969
10601 10600 10599 10599 10598 10599 10600 10600 10601 10600 10599 10599 10599 10601 10602 10602 10604 10604 10606 10609 10610 10613 10614 10616 10620 10622 10625 10630 10634 10636 10641 10645 10647 10648 10651 10658 10663 10671 10683 10687 10688 10694 10701 10707 10716 10725 10734 10735 10737 10753 10768 10776 10786 10793 10793 10795 10801 10810 10818 10824 10837 10847 10849 10855 10866 10875 10881 10889 10895 10900 10906 10910 10913 10915 10921 10927 10930 10933 10937 10940 10943 10947 10951 10954 10957 10960 10963 10966
10592 10591 10590 10590 10589 10589 10589 10590 10591 10591 10592 10592 10591 10593 10594 10594 10595 10596 10597 10599 10601 10601 10603 10606 10609 10609 10613 10617 10620 10625 10627 10627 10632 10634 10636 10645 10649 10656 10667 10670 10672 10679 10685 10693 10699 10708 10719 10720 10725 10746 10760 10762 10771 10777 10777 10781 10791 10802 10809 10816 10827 10837 10840 10846 10856 10864 10873 10882 10889 10893 10899 10903 10908 10911 10915 10920 10923 10926 10930 10933 10937 10943 10947 10951 10954 10957 10959 10962
10584 10582 10581 10581 10579 10579 10579 10580 10581 10583 10583 10583 10583 10584 10585 10585 10587 10588 10588 10590 10591 10592 10593 10595 10597 10598 10600 10604 10609 10613 10610 10610 10621 10622 10620 10628 10634 10641 10651 10655 10659 10664 10669 10677 10681 10692 10706 10707 10713 10733 10745 10747 10754 10759 10764 10771 10781 10791 10798 10804 10815 10825 10830 10834 10845 10857 10868 10876 10879 10883 10890 10896 10903 10906 10907 10911 10916 10919 10923 10927 10933 10939 10943 10947 10951 10954 10956 10958
10576 10574 10573 10572 10570 10569 10569 10570 10572 10573 10574 10574 10574 10575 10575 10576 10578 10579 10579 10580 10581 10582 10583 10584 10587 10587 10589 10593 10597 10599 10597 10599 10608 10608 10606 10613 10620 10627 10634 10639 10644 10648 10653 10660 10665 10677 10690 10690 10699 10718 10727 10731 10737 10743 10753 10763 10770 10778 10786 10793 10805 10815 10820 10824 10836 10850 10859 10865 10869 10876 10884 10889 10895 10899 10900 10903 10909 10913 10916 10921 10927 10934 10939 10943 10947 10950 10952 10955
10569 10566 10564 10563 10562 10561 10561 10562 10563 10563 10564 10564 10565 10566 10566 10567 10568 10569 10570 10571 10571 10572 10573 10573 10576 10577 10578 10581 10582 10586 10589 10588 10590 10593 10594 10599 10605 10612 10617 10621 10629 10636 10640 10644 10650 10660 10670 10674 10687 10702 10707 10715 10724 10732 10745 10756 10760 10765 10774 10784 10794 10803 10811 10818 10829 10841 10849 10856 10863 10870 10878 10883 10886 10890 10892 10895 10901 10905 10908 10913 10920 10926 10932 10937 10941 10945 10948 10951
10563 10560 10557 10555 10554 10554 10555 10555 10555 10555 10555 10556 10556 10557 10557 10558 10558 10559 10559 10561 10561 10562 10563 10563 10564 10566 10567 10569 10569 10574 10578 10576 10576 10579 10583 10586 10589 10596 10603 10608 10617 10623 10625 10627 10632 10640 10651 10663 10677 10686 10690 10702 10713 10721 10733 10744 10749 10754 10762 10773 10783 10793 10803 10812 10822 10834 10844 10851 10856 10862 10870 10873 10872 10879 10886 10888 10891 10896 10900 10905 10911 10919 10926 10932 10936 10940 10944 10947
10556 10553 10550 10548 10548 10548 10548 10548 10548 10548 10548 10548 10548 10549 10549 10549 10549 10549 10549 10551 10551 10552 10553 10553 10554 10554 10556 10558 10558 10561 10564 10564 10565 10566 10569 10573 10574 10581 10592 10597 10601 10605 10607 10609 10612 10622 10638 10653 10663 10669 10675 10687 10698 10706 10717 10729 10734 10738 10745 10756 10767 10777 10788 10798 10811 10825 10835 10842 10847 10852 10859 10860 10861 10874 10884 10883 10884 10890 10895 10899 10905 10913 10920 10925 10931 10935 10939 10942
10550 10547 10544 10542 10541 10541 10541 10541 10541 10541 10541 10541 10541 10541 10542 10541 10541 10541 10541 10542 10542 10542 10543 10544 10544 10544 10545 10547 10547 10548 10551 10552 10553 10554 10555 10559 10561 10569 10581 10583 10582 10586 10590 10592 10597 10609 10627 10638 10645 10652 10659 10669 10681 10692 10705 10717 10721 10726 10736 10746 10756 10766 10776 10787 10799 10809 10817 10825 10833 10840 10847 10851 10857 10869 10876 10875 10877 10882 10887 10893 10900 10907 10914 10920 10925 10929 10933 10938
10544 10542 10539 10537 10536 10535 10535 10534 10534 10535 10534 10534 10534 10534 10534 10534 10534 10533 10533 10533 10534 10534 10534 10534 10535 10534 10534 10536 10536 10537 10539 10540 10542 10542 10543 10546 10549 10556 10566 10568 10567 10571 10575 10580 10588 10600 10613 10621 10628 10637 10643 10653 10667 10679 10692 10703 10707 10717 10731 10740 10749 10761 10770 10778 10787 10794 10801 10811 10820 10829 10839 10846 10854 10863 10868 10871 10874 10875 10879 10888 10894 10899 10907 10912 10916 10922 10927 10932
10538 10537 10534 10532 10531 10530 10530 10529 10528 10528 10528 10528 10528 10527 10527 10527 10526 10526 10525 10525 10525 10525 10525 10525 10525 10524 10524 10525 10525 10526 10527 10529 10531 10531 10531 10533 10536 10544 10552 10555 10556 10557 10560 10570 10579 10587 10596 10604 10612 10622 10630 10641 10655 10666 10678 10685 10688 10699 10714 10724 10736 10750 10760 10768 10777 10786 10797 10810 10817 10823 10834 10841 10847 10855 10861 10866 10869 10866 10866 10876 10885 10891 10899 10906 10912 10918 10924 10928
10533 10532 10530 10527 10526 10525 10525 10524 10523 10522 10522 10522 10521 10521 10520 10520 10520 10519 10519 10518 10518 10517 10517 10516 10516 10515 10515 10515 10515 10515 10515 10516 10518 10518 10518 10520 10524 10532 10539 10543 10545 10544 10547 10558 10566 10571 10579 10589 10598 10607 10617 10629 10640 10651 10662 10668 10673 10686 10700 10710 10718 10729 10742 10753 10763 10777 10793 10805 10809 10817 10826 10830 10836 10846 10851 10855 10857 10853 10853 10865 10881 10889 10895 10903 10911 10916 10920 10924
10527 10527 10525 10523 10522 10521 10520 10519 10518 10518 10517 10516 10515 10515 10514 10514 10513 10513 10512 10512 10511 10509 10509 10508 10507 10507 10507 10505 10505 10504 10503 10503 10504 10505 10506 10509 10514 10521 10527 10531 10533 10533 10537 10545 10552 10557 10566 10575 10583 10592 10604 10616 10625 10634 10644 10650 10659 10673 10686 10695 10704 10716 10728 10736 10746 10765 10783 10791 10797 10808 10816 10822 10831 10839 10843 10845 10844 10843 10850 10864 10877 10884 10888 10896 10903 10906 10910 10914
10522 10522 10521 10519 10518 10517 10516 10514 10514 10513 10512 10511 10511 10509 10509 10508 10507 10506 10505 10504 10503 10502 10501 10501 10501 10500 10498 10496 10494 10493 10491 10490 10492 10495 10498 10501 10505 10508 10512 10517 10519 10521 10526 10531 10536 10544 10553 10562 10569 10578 10590 10601 10608 10616 10626 10633 10645 10659 10672 10684 10697 10710 10720 10728 10739 10754 10766 10775 10789 10800 10807 10815 10824 10830 10836 10840 10835 10835 10848 10860 10868 10877 10884 10889 10895 10898 10902 10905
10518 10517 10516 10515 10514 10512 10511 10510 10509 10508 10507 10507 10506 10505 10503 10502 10501 10500 10499 10498 10497 10496 10494 10494 10493 10491 10489 10487 10484 10481 10480 10480 10483 10486 10488 10490 10492 10495 10498 10502 10505 10508 10513 10518 10523 10530 10540 10549 10555 10563 10576 10587 10592 10600 10611 10621 10633 10646 10659 10674 10688 10699 10711 10722 10733 10744 10753 10765 10780 10789 10797 10806 10813 10820 10831 10834 10826 10829 10845 10855 10861 10872 10879 10883 10889 10894 10896 10901
10514 10513 10511 10510 10509 10508 10507 10506 10504 10503 10502 10501 10500 10499 10498 10497 10495 10494 10493 10492 10491 10490 10488 10486 10485 10483 10480 10477 10474 10472 10472 10472 10473 10475 10477 10477 10480 10483 10485 10489 10493 10496 10500 10505 10509 10517 10527 10536 10541 10548 10562 10573 10580 10589 10600 10611 10623 10634 10647 10663 10676 10688 10699 10708 10720 10734 10750 10763 10772 10777 10786 10796 10804 10812 10821 10822 10816 10822 10837 10849 10856 10865 10871 10876 10883 10888 10890 10896
10511 10509 10508 10506 10505 10504 10502 10501 10499 10498 10497 10496 10495 10494 10492 10491 10489 10488 10487 10486 10485 10484 10482 10479 10477 10474 10471 10468 10466 10465 10464 10464 10463 10464 10465 10466 10468 10471 10474 10477 10481 10485 10488 10493 10497 10505 10515 10523 10527 10535 10548 10561 10569 10576 10586 10599 10610 10620 10634 10650 10662 10673 10685 10696 10710 10728 10745 10757 10764 10769 10777 10785 10792 10802 10810 10811 10808 10813 10828 10843 10852 10857 10862 10869 10876 10881 10886 10891
10508 10506 10505 10503 10502 10500 10498 10497 10495 10494 10492 10491 10489 10488 10487 10485 10483 10482 10481 10480 10479 10477 10475 10472 10469 10466 10463 10461 10460 10458 10456 10455 10454 10454 10455 10456 10457 10460 10463 10466 10470 10474 10477 10482 10488 10496 10504 10511 10516 10524 10537 10550 10556 10561 10572 10585 10593 10605 10623 10638 10650 10662 10674 10687 10702 10720 10734 10742 10750 10760 10768 10774 10781 10791 10799 10802 10803 10809 10823 10835 10842 10847 10855 10862 10870 10876 10883 10887